Location: Newark
(39.6867°N, 100.6772°W)
Time: 09:55:49
(UTC+00:00)

Vanguard 1 - Pass Details

Date: 20 October 2019
Orbit: 652 x 3831 km, 34.2° (Epoch: 18 November)

Event Time Altitude Azimuth Distance (km) Brightness Sun altitude
Rises 02:52:51 0° 255° (WSW) 4,247 14.1 -34.2°
Reaches altitude 10° 02:55:10 10° 253° (WSW) 3,555 13.5 -34.6°
Maximum altitude 03:04:40 69° 172° (S) 2,279 11.6 -36.3°
Enters shadow 03:06:09 65° 139° (SE) 2,444 11.6 -36.6°
Drops below altitude 10° 03:22:34 10° 95° (E) 6,283 - -39.6°
Sets 03:28:16 0° 93° (E) 7,632 - -40.6°
